User: anonymous   Login
Location: Oshawa
(43.9000°N, 78.8670°W)
Time: 17:11:23
(UTC-05:00)
Language:

Iridium 54 - Orbit

View from above orbital plane
View from above orbital plane
View from above satellite
View from above satellite

Ground track
Ground track

The orbit data is extracted from the following two-line orbital elements,

1 25171U 98010C   17055.48145836 -.00000031  00000-0 -18117-4 0  9999
2 25171  86.3954  37.5113 0002121  86.4523 273.6916 14.34214356995771
Epoch (UTC): 24 February 2017 11:33:18
Eccentricity: 0.0002121
inclination: 86.3954°
perigee height: 776 km
apogee height: 779 km
right ascension of ascending node: 37.5113°
argument of perigee: 86.4523°
revolutions per day: 14.34214356
mean anomaly at epoch: 273.6916°
orbit number at epoch: 99577

The dashed part of the orbit path shows where the satellite is in the earth's shadow,  

DLR